| time (UTC) | temp F | wind direction | speed MPH | gust MPH | rain 1hr in | rain 24hr in | rain mn in | humidity % | barometer mb |
| 20260902184537 | 72 | 357 | 10.0 | 15.0 | 0.00 | 0.00 | 0.00 | 66 | 1018.1 |
| 20260902183518 | 73 | 350 | 11.0 | 17.0 | 0.00 | 0.00 | 0.00 | 65 | 1018.0 |
| 20260902182542 | 74 | 339 | 9.0 | 12.0 | 0.00 | 0.00 | 0.00 | 65 | 1018.0 |
| 20260902181517 | 74 | 338 | 8.0 | 11.0 | 0.00 | 0.00 | 0.00 | 65 | 1017.9 |
| 20260902180522 | 74 | 347 | 5.0 | 7.0 | 0.00 | 0.00 | 0.00 | 65 | 1017.9 |
| 20260902175518 | 74 | 333 | 1.0 | 5.0 | 0.00 | 0.00 | 0.00 | 65 | 1017.8 |
| 20260902174522 | 74 | 17 | 5.0 | 6.0 | 0.00 | 0.00 | 0.00 | 65 | 1017.7 |
| 20260902173517 | 74 | 16 | 1.0 | 4.0 | 0.00 | 0.00 | 0.00 | 65 | 1017.5 |
| 20260902172518 | 74 | 15 | 5.0 | 6.0 | 0.00 | 0.00 | 0.00 | 66 | 1017.5 |
| 20260902171518 | 74 | 347 | 3.0 | 5.0 | 0.00 | 0.00 | 0.00 | 65 | 1017.4 |
| 20260902170540 | 74 | 6 | 2.0 | 5.0 | 0.00 | 0.00 | 0.00 | 65 | 1017.4 |
| 20260902165518 | 75 | 332 | 1.0 | 5.0 | 0.00 | 0.00 | 0.00 | 64 | 1017.2 |
| 20260902164523 | 75 | 355 | 3.0 | 4.0 | 0.00 | 0.00 | 0.00 | 64 | 1017.1 |
| 20260902163518 | 76 | 341 | 0.0 | 3.0 | 0.00 | 0.00 | 0.00 | 63 | 1017.0 |
| 20260902162521 | 77 | 335 | 1.0 | 5.0 | 0.00 | 0.00 | 0.00 | 61 | 1017.1 |
| 20260902161537 | 77 | 343 | 5.0 | 10.0 | 0.00 | 0.00 | 0.00 | 60 | 1017.2 |
| 20260902160517 | 78 | 302 | 3.0 | 7.0 | 0.00 | 0.00 | 0.00 | 61 | 1017.2 |
| 20260902155518 | 78 | 294 | 5.0 | 7.0 | 0.00 | 0.00 | 0.00 | 61 | 1017.3 |
| 20260902154520 | 78 | 285 | 7.0 | 11.0 | 0.00 | 0.00 | 0.00 | 59 | 1017.3 |
| 20260902153519 | 79 | 284 | 10.0 | 13.0 | 0.00 | 0.00 | 0.00 | 57 | 1017.3 |
| 20260902152521 | 80 | 288 | 11.0 | 17.0 | 0.00 | 0.00 | 0.00 | 56 | 1017.3 |
| 20260902151519 | 80 | 282 | 3.0 | 7.0 | 0.00 | 0.00 | 0.00 | 55 | 1017.3 |
| 20260902150542 | 79 | 269 | 7.0 | 11.0 | 0.00 | 0.00 | 0.00 | 56 | 1017.4 |
| 20260902145518 | 80 | 282 | 12.0 | 17.0 | 0.00 | 0.00 | 0.00 | 55 | 1017.3 |
| 20260902144518 | 80 | 313 | 6.0 | 13.0 | 0.00 | 0.00 | 0.00 | 54 | 1017.4 |
| 20260902143518 | 80 | 276 | 14.0 | 19.0 | 0.00 | 0.00 | 0.00 | 54 | 1017.5 |
| 20260902142522 | 80 | 275 | 6.0 | 11.0 | 0.00 | 0.00 | 0.00 | 56 | 1017.5 |
| 20260902141517 | 79 | 340 | 8.0 | 13.0 | 0.00 | 0.00 | 0.00 | 56 | 1017.7 |
| 20260902140539 | 80 | 297 | 9.0 | 20.0 | 0.00 | 0.00 | 0.00 | 56 | 1017.7 |
| 20260902135517 | 80 | 268 | 11.0 | 21.0 | 0.00 | 0.00 | 0.00 | 56 | 1017.8 |
| 20260902134521 | 80 | 313 | 10.0 | 26.0 | 0.00 | 0.00 | 0.00 | 57 | 1017.8 |
| 20260902133518 | 80 | 295 | 13.0 | 19.0 | 0.00 | 0.00 | 0.00 | 57 | 1017.9 |
| 20260902132542 | 78 | 283 | 7.0 | 13.0 | 0.00 | 0.00 | 0.00 | 59 | 1018.1 |
| 20260902131518 | 78 | 279 | 16.0 | 23.0 | 0.00 | 0.00 | 0.00 | 60 | 1018.2 |
| 20260902130541 | 79 | 299 | 6.0 | 16.0 | 0.00 | 0.00 | 0.00 | 59 | 1018.2 |
| 20260902125517 | 81 | 336 | 12.0 | 22.0 | 0.00 | 0.00 | 0.00 | 58 | 1018.2 |
| 20260902124521 | 80 | 182 | 7.0 | 13.0 | 0.00 | 0.00 | 0.00 | 57 | 1018.3 |
| 20260902123538 | 80 | 228 | 18.0 | 26.0 | 0.00 | 0.00 | 0.00 | 57 | 1018.4 |
| 20260902122520 | 79 | 252 | 13.0 | 22.0 | 0.00 | 0.00 | 0.00 | 60 | 1018.5 |
| 20260902121519 | 77 | 235 | 15.0 | 23.0 | 0.00 | 0.00 | 0.00 | 62 | 1018.7 |
| 20260902120541 | 77 | 242 | 18.0 | 26.0 | 0.00 | 0.00 | 0.00 | 64 | 1018.7 |
| 20260902115538 | 76 | 245 | 12.0 | 18.0 | 0.00 | 0.00 | 0.00 | 64 | 1018.7 |
| 20260902114520 | 76 | 305 | 5.0 | 9.0 | 0.00 | 0.00 | 0.00 | 65 | 1018.8 |
| 20260902113538 | 75 | 3 | 5.0 | 11.0 | 0.00 | 0.00 | 0.00 | 66 | 1018.9 |
| 20260902112516 | 75 | 318 | 11.0 | 21.0 | 0.00 | 0.00 | 0.00 | 67 | 1019.0 |
| 20260902111541 | 76 | 268 | 17.0 | 23.0 | 0.00 | 0.00 | 0.00 | 66 | 1019.1 |
| 20260902110520 | 76 | 284 | 21.0 | 30.0 | 0.00 | 0.00 | 0.00 | 65 | 1019.2 |
| 20260902105537 | 76 | 290 | 16.0 | 27.0 | 0.00 | 0.00 | 0.00 | 67 | 1019.2 |
| 20260902104521 | 76 | 275 | 19.0 | 33.0 | 0.00 | 0.00 | 0.00 | 67 | 1019.3 |
| 20260902103518 | 77 | 300 | 8.0 | 17.0 | 0.00 | 0.00 | 0.00 | 66 | 1019.3 |
| 20260902102539 | 76 | 327 | 6.0 | 9.0 | 0.00 | 0.00 | 0.00 | 65 | 1019.4 |
| 20260902101558 | 76 | 288 | 18.0 | 30.0 | 0.00 | 0.00 | 0.00 | 65 | 1019.5 |
| 20260902100522 | 76 | 301 | 14.0 | 19.0 | 0.00 | 0.00 | 0.00 | 65 | 1019.6 |
| 20260902095518 | 76 | 332 | 10.0 | 17.0 | 0.00 | 0.00 | 0.00 | 65 | 1019.6 |
| 20260902094519 | 77 | 293 | 14.0 | 30.0 | 0.00 | 0.00 | 0.00 | 64 | 1019.7 |
| 20260902093517 | 78 | 294 | 13.0 | 19.0 | 0.00 | 0.00 | 0.00 | 63 | 1019.7 |
| 20260902092522 | 78 | 226 | 10.0 | 20.0 | 0.00 | 0.00 | 0.00 | 66 | 1019.8 |
| 20260902091516 | 76 | 198 | 10.0 | 26.0 | 0.00 | 0.00 | 0.00 | 67 | 1019.9 |
| 20260902090518 | 76 | 258 | 10.0 | 17.0 | 0.00 | 0.00 | 0.00 | 69 | 1019.8 |
| 20260902085519 | 74 | 195 | 14.0 | 27.0 | 0.00 | 0.00 | 0.00 | 71 | 1019.9 |
| 20260902084521 | 72 | 233 | 6.0 | 13.0 | 0.00 | 0.00 | 0.00 | 74 | 1019.9 |
| 20260902083518 | 72 | 265 | 9.0 | 13.0 | 0.00 | 0.00 | 0.00 | 74 | 1020.1 |
| 20260902082522 | 71 | 218 | 7.0 | 12.0 | 0.00 | 0.00 | 0.00 | 75 | 1020.1 |
| 20260902081518 | 70 | 222 | 13.0 | 18.0 | 0.00 | 0.00 | 0.00 | 76 | 1020.2 |
| 20260902080521 | 70 | 179 | 10.0 | 18.0 | 0.00 | 0.00 | 0.00 | 77 | 1020.1 |
| 20260902075519 | 70 | 234 | 6.0 | 16.0 | 0.00 | 0.00 | 0.00 | 78 | 1020.0 |
| 20260902074521 | 70 | 252 | 11.0 | 17.0 | 0.00 | 0.00 | 0.00 | 77 | 1020.0 |
| 20260902073517 | 69 | 330 | 5.0 | 8.0 | 0.00 | 0.00 | 0.00 | 80 | 1019.9 |
| 20260902072518 | 68 | 89 | 2.0 | 5.0 | 0.00 | 0.00 | 0.00 | 82 | 1020.0 |
| 20260902071518 | 67 | 276 | 6.0 | 11.0 | 0.00 | 0.00 | 0.00 | 85 | 1020.0 |
| 20260902070520 | 65 | 307 | 7.0 | 12.0 | 0.00 | 0.00 | 0.00 | 86 | 1020.1 |
| 20260902065517 | 65 | 285 | 11.0 | 16.0 | 0.00 | 0.00 | 0.00 | 86 | 1020.1 |
| 20260902064520 | 65 | 273 | 16.0 | 24.0 | 0.00 | 0.00 | 0.00 | 86 | 1020.2 |
| 20260902063522 | 65 | 298 | 11.0 | 17.0 | 0.00 | 0.00 | 0.00 | 87 | 1020.0 |
| 20260902062601 | 64 | 272 | 14.0 | 19.0 | 0.00 | 0.00 | 0.00 | 87 | 1019.9 |
| 20260902061518 | 65 | 306 | 10.0 | 18.0 | 0.00 | 0.00 | 0.00 | 87 | 1020.0 |
| 20260902060518 | 64 | 306 | 12.0 | 19.0 | 0.00 | 0.00 | 0.00 | 87 | 1019.9 |
| 20260902055522 | 64 | 283 | 15.0 | 26.0 | 0.00 | 0.00 | 0.00 | 89 | 1019.8 |
| 20260902054523 | 63 | 268 | 16.0 | 22.0 | 0.00 | 0.00 | 0.00 | 90 | 1019.9 |
| 20260902053519 | 62 | 279 | 14.0 | 21.0 | 0.00 | 0.00 | 0.00 | 91 | 1019.8 |
| 20260902052519 | 62 | 287 | 12.0 | 21.0 | 0.00 | 0.00 | 0.00 | 91 | 1019.7 |
| 20260902051557 | 62 | 279 | 11.0 | 14.0 | 0.00 | 0.00 | 0.00 | 91 | 1019.7 |
| 20260902050519 | 62 | 271 | 10.0 | 15.0 | 0.00 | 0.00 | 0.00 | 92 | 1019.7 |
| 20260902045518 | 62 | 273 | 8.0 | 15.0 | 0.00 | 0.00 | 0.00 | 91 | 1019.6 |
| 20260902044542 | 62 | 269 | 6.0 | 9.0 | 0.00 | 0.00 | 0.00 | 91 | 1019.6 |
| 20260902043521 | 62 | 186 | 4.0 | 8.0 | 0.00 | 0.00 | 0.00 | 91 | 1019.5 |
| 20260902042541 | 62 | 336 | 4.0 | 8.0 | 0.00 | 0.00 | 0.00 | 91 | 1019.3 |
| 20260902041517 | 61 | 322 | 5.0 | 8.0 | 0.00 | 0.00 | 0.00 | 92 | 1019.3 |
| 20260902040522 | 61 | 351 | 4.0 | 9.0 | 0.00 | 0.00 | 0.00 | 91 | 1019.3 |
| 20260902035518 | 61 | 331 | 5.0 | 8.0 | 0.00 | 0.00 | 0.00 | 91 | 1019.3 |
| 20260902034540 | 61 | 304 | 5.0 | 11.0 | 0.00 | 0.00 | 0.00 | 91 | 1019.3 |
| 20260902033518 | 61 | 348 | 6.0 | 9.0 | 0.00 | 0.00 | 0.00 | 91 | 1019.2 |
| 20260902032521 | 61 | 265 | 3.0 | 5.0 | 0.00 | 0.00 | 0.00 | 92 | 1019.3 |
| 20260902031517 | 61 | 316 | 5.0 | 10.0 | 0.00 | 0.00 | 0.00 | 92 | 1019.2 |
| 20260902025517 | 61 | 297 | 9.0 | 20.0 | 0.00 | 0.00 | 0.00 | 92 | 1019.4 |
| 20260902024522 | 60 | 337 | 6.0 | 10.0 | 0.00 | 0.00 | 0.00 | 91 | 1019.2 |
| 20260902023518 | 60 | 270 | 4.0 | 7.0 | 0.00 | 0.00 | 0.00 | 91 | 1019.2 |
| 20260902022519 | 60 | 327 | 8.0 | 18.0 | 0.00 | 0.00 | 0.00 | 90 | 1019.0 |
| 20260902021521 | 60 | 183 | 3.0 | 5.0 | 0.00 | 0.00 | 0.00 | 90 | 1019.0 |
| 20260902020541 | 60 | 139 | 7.0 | 11.0 | 0.00 | 0.00 | 0.00 | 89 | 1018.9 |
| 20260902015519 | 61 | 137 | 3.0 | 7.0 | 0.00 | 0.00 | 0.00 | 89 | 1018.8 |
| 20260902014517 | 61 | 20 | 13.0 | 21.0 | 0.00 | 0.00 | 0.00 | 90 | 1018.8 |
| 20260902013517 | 60 | 22 | 9.0 | 11.0 | 0.00 | 0.00 | 0.00 | 89 | 1018.8 |
| 20260902012521 | 61 | 57 | 4.0 | 10.0 | 0.00 | 0.00 | 0.00 | 88 | 1018.9 |
| 20260902011517 | 62 | 151 | 6.0 | 9.0 | 0.00 | 0.00 | 0.00 | 87 | 1018.8 |
| 20260902010517 | 62 | 176 | 2.0 | 7.0 | 0.00 | 0.00 | 0.00 | 87 | 1018.6 |
| 20260902005517 | 62 | 14 | 5.0 | 8.0 | 0.00 | 0.00 | 0.00 | 88 | 1018.5 |
| 20260902004518 | 62 | 349 | 11.0 | 17.0 | 0.00 | 0.00 | 0.00 | 88 | 1018.5 |
| 20260902003518 | 62 | 329 | 5.0 | 7.0 | 0.00 | 0.00 | 0.00 | 88 | 1018.5 |
| 20260902002522 | 61 | 26 | 7.0 | 11.0 | 0.00 | 0.00 | 0.00 | 87 | 1018.5 |
| 20260902001519 | 62 | 153 | 3.0 | 7.0 | 0.00 | 0.00 | 0.00 | 87 | 1018.6 |
| 20260902000521 | 62 | 128 | 2.0 | 5.0 | 0.00 | 0.00 | 0.00 | 85 | 1018.6 |
| 20260901235518 | 63 | 156 | 1.0 | 5.0 | 0.00 | 0.00 | 0.00 | 84 | 1018.5 |
| 20260901234522 | 64 | 161 | 3.0 | 7.0 | 0.00 | 0.00 | 0.00 | 83 | 1018.4 |
| 20260901233518 | 64 | 26 | 3.0 | 5.0 | 0.00 | 0.00 | 0.00 | 82 | 1018.3 |
| 20260901232519 | 64 | 359 | 5.0 | 8.0 | 0.00 | 0.00 | 0.00 | 81 | 1018.2 |
| 20260901231517 | 64 | 3 | 9.0 | 11.0 | 0.00 | 0.00 | 0.00 | 82 | 1018.2 |
| 20260901230521 | 64 | 12 | 10.0 | 12.0 | 0.00 | 0.00 | 0.00 | 82 | 1018.1 |
| 20260901225518 | 64 | 14 | 9.0 | 11.0 | 0.00 | 0.00 | 0.00 | 83 | 1018.2 |
| 20260901224522 | 63 | 7 | 5.0 | 8.0 | 0.00 | 0.00 | 0.00 | 85 | 1018.3 |
| 20260901223518 | 64 | 350 | 2.0 | 7.0 | 0.00 | 0.00 | 0.00 | 84 | 1018.4 |
| 20260901222521 | 64 | 289 | 2.0 | 7.0 | 0.00 | 0.00 | 0.00 | 84 | 1018.5 |
| 20260901221517 | 64 | 307 | 5.0 | 9.0 | 0.00 | 0.00 | 0.00 | 84 | 1018.5 |
| 20260901220539 | 64 | 328 | 5.0 | 11.0 | 0.00 | 0.00 | 0.00 | 84 | 1018.4 |
| 20260901215517 | 64 | 314 | 5.0 | 11.0 | 0.00 | 0.00 | 0.00 | 84 | 1018.4 |
| 20260901214521 | 64 | 313 | 6.0 | 10.0 | 0.00 | 0.00 | 0.00 | 84 | 1018.3 |
| 20260901213538 | 64 | 299 | 1.0 | 5.0 | 0.00 | 0.00 | 0.00 | 84 | 1018.3 |
| 20260901212518 | 65 | 299 | 1.0 | 5.0 | 0.00 | 0.00 | 0.00 | 84 | 1018.2 |
| 20260901211517 | 65 | 317 | 1.0 | 5.0 | 0.00 | 0.00 | 0.00 | 83 | 1018.2 |
| 20260901210521 | 65 | 320 | 2.0 | 5.0 | 0.00 | 0.00 | 0.00 | 83 | 1018.2 |
| 20260901205518 | 65 | 198 | 2.0 | 4.0 | 0.00 | 0.00 | 0.00 | 82 | 1018.1 |
| 20260901204522 | 65 | 185 | 4.0 | 6.0 | 0.00 | 0.00 | 0.00 | 82 | 1018.1 |
| 20260901203518 | 66 | 153 | 5.0 | 7.0 | 0.00 | 0.00 | 0.00 | 82 | 1017.9 |
| 20260901202523 | 66 | 146 | 5.0 | 7.0 | 0.00 | 0.00 | 0.00 | 81 | 1017.9 |
| 20260901201517 | 66 | 153 | 2.0 | 5.0 | 0.00 | 0.00 | 0.00 | 80 | 1017.8 |
| 20260901200518 | 67 | 170 | 1.0 | 5.0 | 0.00 | 0.00 | 0.00 | 79 | 1017.8 |
| 20260901195521 | 68 | 190 | 5.0 | 7.0 | 0.00 | 0.00 | 0.00 | 78 | 1017.8 |
| 20260901194522 | 68 | 341 | 8.0 | 15.0 | 0.00 | 0.00 | 0.00 | 77 | 1017.6 |
| 20260901193539 | 68 | 341 | 9.0 | 15.0 | 0.00 | 0.00 | 0.00 | 76 | 1017.7 |
| 20260901192541 | 69 | 343 | 11.0 | 20.0 | 0.00 | 0.00 | 0.00 | 76 | 1017.6 |
| 20260901191517 | 69 | 338 | 12.0 | 17.0 | 0.00 | 0.00 | 0.00 | 76 | 1017.7 |
| 20260901190517 | 69 | 328 | 7.0 | 13.0 | 0.00 | 0.00 | 0.00 | 75 | 1017.7 |
| 20260901185518 | 70 | 317 | 9.0 | 15.0 | 0.00 | 0.00 | 0.00 | 75 | 1017.7 |